QPF
0.00 0.00 0.00 0.00 0.00 0.00 0.00 0.00 0.00 0.00 0.00 0.00 0.00 0.00 0.00 0.00 0.00 0.00 0.00 0.00 0.00 0.00 0.00 0.00 0.00 0.00 0.00 0.00 0.00 0.00 0.00 0.00 0.00 0.00 0.00 0.00 0.00 0.00 0.00 0.00 0.00 0.00 0.00 0.00 0.00 0.00 0.00
0.00 0.00 0.00 0.00 0.00 0.00 0.00 0.00 0.00 0.00 0.00 0.00 0.00 0.00 0.00 0.00 0.00 0.00 0.00 0.00 0.00 0.00 0.00 0.00 0.00 0.00 0.00 0.00 0.00 0.00 0.00 0.00 0.00 0.00 0.00 0.00 0.00 0.00 0.00 0.00 0.00 0.00 0.00 0.00 0.00 0.00 0.00
0.00 0.00 0.00 0.00 0.00 0.00 0.00 0.00 0.00 0.00 0.00 0.00 0.00 0.00 0.00 0.00 0.00 0.00 0.00 0.00 0.00 0.00 0.00 0.00 0.00 0.00 0.00 0.00 0.00 0.00 0.00 0.00 0.00 0.00 0.00 0.00 0.00 0.00 0.00 0.00 0.00 0.00 0.00 0.00 0.00 0.00 0.00
0.00 0.00 0.00 0.00 0.00 0.00 0.00 0.00 0.00 0.00 0.00 0.00 0.00 0.00 0.00 0.00 0.00 0.00 0.00 0.00 0.00 0.00 0.00 0.00 0.00 0.00 0.00 0.00 0.00 0.00 0.00 0.00 0.00 0.00 0.00 0.00 0.00 0.00 0.00 0.00 0.00 0.00 0.00 0.00 0.00 0.00 0.00
0.00 0.00 0.00 0.00 0.00 0.00 0.00 0.00 0.00 0.00 0.00 0.00 0.00 0.00 0.00 0.00 0.00 0.00 0.00 0.00 0.00 0.00 0.00 0.00 0.00 0.00 0.00 0.00 0.00 0.00 0.00 0.00 0.00 0.00 0.00 0.00 0.00 0.00 0.00 0.00 0.00 0.00 0.00 0.00 0.00 0.00 0.00
0.00 0.00 0.00 0.00 0.00 0.00 0.00 0.00 0.00 0.00 0.00 0.00 0.00 0.00 0.00 0.00 0.00 0.00 0.00 0.00 0.00 0.00 0.00 0.00 0.00 0.00 0.00 0.00 0.00 0.00 0.00 0.00 0.00 0.00 0.00 0.00 0.00 0.00 0.00 0.00 0.00 0.00 0.00 0.00 0.00 0.00 0.00
0.00 0.00 0.00 0.00 0.00 0.00 0.00 0.00 0.00 0.00 0.00 0.00 0.00 0.00 0.00 0.00 0.00 0.00 0.00 0.00 0.00 0.00 0.00 0.00 0.00 0.00 0.00 0.00 0.00 0.00 0.00 0.00 0.00 0.00 0.00 0.00 0.00 0.00 0.00 0.00 0.00 0.00 0.00 0.00 0.00 0.00 0.00
0.00 0.00 0.00 0.00 0.00 0.00 0.00 0.00 0.00 0.00 0.00 0.00 0.00 0.00 0.00 0.00 0.00 0.00 0.00 0.00 0.00 0.00 0.00 0.00 0.00 0.00 0.00 0.00 0.00 0.00 0.00 0.00 0.00 0.00 0.00 0.00 0.00 0.00 0.00 0.00 0.00 0.00 0.00 0.00 0.00 0.00 0.00
0.00 0.00 0.00 0.00 0.00 0.00 0.00 0.00 0.00 0.00 0.00 0.00 0.00 0.00 0.00 0.00 0.00 0.00 0.00 0.00 0.00 0.00 0.00 0.00 0.00 0.00 0.00 0.00 0.00 0.00 0.00 0.00 0.00 0.00 0.00 0.00 0.00 0.00 0.00 0.00 0.00 0.00 0.00 0.00 0.00 0.00 0.00
0.00 0.00 0.00 0.00 0.00 0.00 0.00 0.00 0.00 0.00 0.00 0.00 0.00 0.00 0.00 0.00 0.00 0.00 0.00 0.00 0.00 0.00 0.00 0.00 0.00 0.00 0.00 0.00 0.00 0.00 0.00 0.00 0.00 0.00 0.00 0.00 0.00 0.00 0.00 0.00 0.00 0.00 0.00 0.00 0.00 0.00 0.00
0.04 0.02 0.00 0.00 0.00 0.00 0.00 0.00 0.00 0.00 0.00 0.00 0.00 0.00 0.00 0.00 0.00 0.00 0.00 0.00 0.00 0.00 0.00 0.00 0.00 0.00 0.00 0.00 0.00 0.00 0.00 0.00 0.00 0.00 0.00 0.00 0.00 0.00 0.00 0.00 0.00 0.00 0.00 0.00 0.00 0.00 0.00
0.04 0.04 0.03 0.02 0.01 0.00 0.00 0.00 0.00 0.00 0.00 0.00 0.01 0.01 0.01 0.01 0.00 0.00 0.00 0.00 0.00 0.01 0.00 0.00 0.00 0.00 0.00 0.00 0.00 0.00 0.00 0.00 0.00 0.00 0.00 0.00 0.00 0.00 0.00 0.00 0.00 0.00 0.00 0.00 0.00 0.00 0.00
0.00 0.02 0.03 0.03 0.03 0.02 0.01 0.00 0.00 0.00 0.00 0.01 0.03 0.06 0.06 0.03 0.01 0.01 0.02 0.04 0.06 0.03 0.00 0.00 0.00 0.00 0.00 0.00 0.00 0.00 0.00 0.00 0.00 0.00 0.00 0.00 0.00 0.00 0.00 0.00 0.00 0.00 0.00 0.00 0.00 0.00 0.00
0.00 0.00 0.01 0.02 0.02 0.03 0.02 0.01 0.00 0.00 0.00 0.00 0.03 0.11 0.22 0.16 0.09 0.10 0.13 0.19 0.12 0.01 0.00 0.00 0.00 0.00 0.00 0.00 0.00 0.00 0.00 0.00 0.00 0.00 0.00 0.00 0.00 0.00 0.00 0.00 0.00 0.00 0.00 0.00 0.00 0.00 0.00
0.00 0.00 0.00 0.00 0.01 0.01 0.02 0.03 0.03 0.02 0.01 0.01 0.10 0.37 0.51 0.25 0.26 0.29 0.34 0.35 0.08 0.00 0.00 0.00 0.00 0.00 0.00 0.00 0.00 0.00 0.00 0.00 0.00 0.00 0.00 0.00 0.00 0.00 0.00 0.00 0.00 0.00 0.00 0.00 0.00 0.00 0.00
0.00 0.00 0.00 0.00 0.00 0.01 0.01 0.02 0.04 0.06 0.09 0.16 0.38 0.43 0.25 0.11 0.29 0.44 0.53 0.27 0.02 0.00 0.00 0.00 0.00 0.00 0.00 0.00 0.00 0.00 0.00 0.00 0.00 0.00 0.00 0.00 0.00 0.00 0.00 0.00 0.00 0.00 0.00 0.00 0.00 0.00 0.00
0.00 0.00 0.00 0.00 0.00 0.01 0.02 0.02 0.02 0.05 0.23 0.58 0.95 0.74 0.40 0.13 0.45 0.68 0.44 0.11 0.00 0.00 0.00 0.00 0.00 0.00 0.00 0.00 0.00 0.00 0.00 0.00 0.00 0.00 0.00 0.00 0.00 0.00 0.00 0.00 0.00 0.00 0.00 0.00 0.00 0.00 0.00
0.00 0.00 0.00 0.00 0.00 0.00 0.01 0.03 0.05 0.08 0.28 0.59 0.67 0.61 0.44 0.21 0.43 0.46 0.17 0.02 0.01 0.00 0.00 0.00 0.00 0.00 0.00 0.00 0.00 0.00 0.00 0.00 0.00 0.00 0.00 0.00 0.00 0.00 0.00 0.00 0.00 0.00 0.00 0.00 0.00 0.00 0.00
0.00 0.00 0.00 0.00 0.00 0.00 0.00 0.01 0.04 0.14 0.26 0.36 0.44 0.44 0.55 0.37 0.29 0.24 0.07 0.01 0.00 0.00 0.00 0.00 0.00 0.00 0.00 0.00 0.00 0.00 0.00 0.00 0.00 0.00 0.00 0.00 0.00 0.00 0.00 0.00 0.00 0.00 0.00 0.00 0.00 0.00 0.00
0.00 0.00 0.00 0.00 0.00 0.00 0.00 0.00 0.04 0.11 0.15 0.28 0.43 0.51 0.53 0.39 0.15 0.05 0.03 0.03 0.03 0.01 0.01 0.00 0.00 0.00 0.01 0.01 0.00 0.01 0.00 0.00 0.00 0.00 0.00 0.00 0.00 0.00 0.00 0.00 0.00 0.00 0.00 0.00 0.00 0.01 0.00
0.00 0.00 0.00 0.00 0.00 0.00 0.00 0.00 0.01 0.05 0.16 0.38 0.55 0.59 0.41 0.28 0.11 0.02 0.01 0.02 0.03 0.03 0.04 0.03 0.04 0.02 0.02 0.05 0.10 0.11 0.05 0.03 0.01 0.00 0.00 0.00 0.00 0.00 0.00 0.00 0.00 0.00 0.00 0.00 0.00 0.00 0.00
0.00 0.00 0.00 0.00 0.00 0.00 0.01 0.01 0.01 0.02 0.09 0.42 0.56 0.55 0.35 0.15 0.04 0.02 0.05 0.06 0.04 0.03 0.04 0.10 0.09 0.06 0.11 0.15 0.11 0.11 0.08 0.08 0.03 0.01 0.00 0.00 0.01 0.00 0.00 0.00 0.00 0.00 0.00 0.00 0.00 0.00 0.00
0.00 0.00 0.00 0.00 0.00 0.00 0.00 0.00 0.01 0.02 0.11 0.36 0.50 0.38 0.19 0.17 0.10 0.08 0.09 0.06 0.03 0.02 0.10 0.14 0.12 0.17 0.19 0.11 0.07 0.09 0.07 0.04 0.03 0.02 0.01 0.02 0.01 0.00 0.00 0.00 0.00 0.00 0.00 0.00 0.00 0.00 0.00
0.00 0.00 0.00 0.00 0.00 0.00 0.00 0.01 0.01 0.02 0.02 0.07 0.18 0.16 0.13 0.14 0.09 0.06 0.02 0.02 0.02 0.04 0.11 0.19 0.21 0.22 0.16 0.08 0.09 0.07 0.04 0.02 0.01 0.00 0.01 0.01 0.00 0.01 0.00 0.00 0.01 0.00 0.00 0.00 0.00 0.00 0.00
0.00 0.00 0.00 0.00 0.00 0.00 0.00 0.01 0.02 0.03 0.02 0.07 0.14 0.13 0.12 0.16 0.19 0.15 0.11 0.10 0.15 0.23 0.29 0.25 0.21 0.15 0.13 0.09 0.07 0.03 0.01 0.00 0.00 0.00 0.00 0.00 0.00 0.01 0.01 0.00 0.00 0.00 0.00 0.00 0.00 0.00 0.00
0.00 0.00 0.00 0.00 0.01 0.01 0.01 0.02 0.05 0.09 0.16 0.26 0.18 0.06 0.03 0.08 0.16 0.11 0.12 0.12 0.17 0.22 0.22 0.18 0.15 0.10 0.07 0.03 0.02 0.01 0.00 0.00 0.00 0.00 0.00 0.00 0.00 0.01 0.01 0.01 0.00 0.00 0.00 0.00 0.00 0.00 0.00
0.00 0.00 0.00 0.00 0.01 0.03 0.06 0.06 0.08 0.12 0.21 0.13 0.08 0.06 0.08 0.17 0.26 0.17 0.16 0.17 0.14 0.12 0.12 0.12 0.10 0.07 0.02 0.01 0.01 0.00 0.00 0.00 0.00 0.00 0.00 0.00 0.00 0.01 0.01 0.02 0.00 0.00 0.00 0.00 0.01 0.00 0.00
0.03 0.02 0.03 0.03 0.04 0.09 0.10 0.11 0.12 0.15 0.12 0.05 0.11 0.14 0.14 0.22 0.32 0.22 0.12 0.10 0.11 0.07 0.06 0.07 0.04 0.03 0.02 0.00 0.00 0.00 0.00 0.00 0.00 0.00 0.00 0.00 0.00 0.00 0.01 0.02 0.01 0.00 0.00 0.00 0.00 0.00 0.00
0.14 0.12 0.13 0.11 0.11 0.14 0.15 0.16 0.16 0.15 0.12 0.10 0.17 0.20 0.14 0.15 0.21 0.15 0.11 0.08 0.05 0.03 0.01 0.01 0.00 0.00 0.00 0.00 0.00 0.00 0.00 0.00 0.00 0.00 0.00 0.00 0.00 0.00 0.01 0.00 0.00 0.00 0.00 0.00 0.00 0.00 0.00
MSLP
1017.22 1017.43 1017.76 1018.01 1018.39 1018.50 1018.69 1018.84 1018.94 1019.03 1019.20 1019.18 1019.33 1019.39 1019.28 1019.19 1018.90 1018.67 1018.39 1018.00 1017.53 1016.96 1016.52 1016.28 1015.86 1015.47 1014.79 1014.16 1012.35 1010.96 1010.87 1010.50 1010.31 1010.24 1010.44 1010.56 1010.72 1010.99 1011.04 1010.96 1010.67 1010.59 1010.22 1009.98 1009.57 1009.42 1009.28
1016.57 1016.88 1017.14 1017.62 1017.88 1018.05 1018.27 1018.62 1018.66 1018.81 1018.93 1019.01 1019.03 1019.23 1018.98 1018.90 1018.80 1018.53 1018.23 1017.75 1017.17 1016.56 1016.20 1016.00 1015.65 1015.55 1015.27 1013.74 1011.12 1011.01 1010.94 1010.59 1010.49 1010.25 1010.38 1010.37 1010.74 1010.91 1011.04 1011.09 1011.00 1010.67 1010.25 1009.74 1009.25 1008.91 1009.04
1015.94 1016.18 1016.65 1016.99 1017.40 1017.72 1017.80 1018.07 1018.37 1018.48 1018.57 1018.67 1018.74 1018.83 1018.88 1018.74 1018.50 1018.30 1017.97 1017.47 1016.71 1016.13 1015.88 1015.46 1015.26 1015.36 1014.78 1012.44 1011.23 1011.13 1010.85 1010.70 1010.60 1010.54 1010.27 1010.29 1010.40 1010.60 1010.89 1010.81 1010.97 1010.66 1010.11 1009.49 1009.09 1009.03 1008.84
1015.25 1015.55 1016.06 1016.49 1016.69 1017.05 1017.48 1017.65 1017.94 1018.14 1018.22 1018.33 1018.47 1018.66 1018.61 1018.63 1018.32 1018.09 1017.76 1017.15 1016.04 1015.73 1015.42 1015.13 1015.08 1015.21 1013.66 1011.58 1011.38 1011.25 1010.78 1010.55 1010.45 1010.35 1010.42 1010.38 1010.43 1010.53 1010.69 1010.92 1010.95 1010.83 1010.65 1009.84 1008.98 1008.82 1008.72
1014.42 1014.94 1015.21 1015.84 1016.19 1016.46 1016.86 1017.17 1017.38 1017.64 1017.95 1018.04 1018.10 1018.29 1018.32 1018.45 1018.16 1017.91 1017.60 1016.58 1015.33 1015.35 1015.23 1015.15 1015.13 1014.90 1012.90 1011.41 1011.50 1011.33 1011.10 1010.84 1010.52 1010.40 1010.36 1010.29 1010.63 1011.03 1011.17 1011.12 1011.18 1011.18 1010.65 1010.30 1009.29 1008.96 1008.74
1013.65 1014.07 1014.45 1015.05 1015.48 1015.82 1016.18 1016.59 1016.79 1017.08 1017.46 1017.73 1017.86 1018.00 1018.12 1018.07 1017.93 1017.77 1017.42 1015.84 1014.84 1015.25 1015.16 1015.24 1014.79 1014.81 1012.47 1012.02 1011.73 1011.36 1011.18 1011.08 1010.82 1010.87 1010.64 1010.64 1011.00 1011.47 1011.71 1011.58 1011.14 1011.03 1010.93 1010.56 1009.93 1009.31 1008.82
1012.78 1013.23 1013.68 1014.19 1014.64 1015.08 1015.56 1015.87 1016.12 1016.45 1016.87 1017.18 1017.51 1017.62 1017.89 1017.90 1017.71 1017.74 1017.37 1016.08 1015.60 1015.53 1015.19 1015.18 1014.24 1013.54 1012.77 1012.21 1011.83 1011.24 1010.98 1010.87 1010.86 1011.32 1011.38 1011.48 1011.45 1011.29 1011.38 1011.60 1011.60 1011.53 1011.26 1010.66 1009.90 1009.45 1009.33
1011.86 1012.31 1012.89 1013.38 1013.80 1014.24 1014.81 1015.14 1015.54 1015.88 1016.22 1016.59 1017.10 1017.33 1017.50 1017.67 1017.65 1017.72 1017.82 1017.64 1017.20 1017.31 1015.56 1013.90 1013.56 1013.37 1012.78 1012.62 1012.07 1011.05 1010.95 1011.13 1011.03 1011.37 1011.81 1012.10 1011.50 1011.40 1011.66 1011.77 1011.75 1011.70 1011.52 1010.74 1010.21 1009.51 1009.37
1011.00 1011.48 1012.01 1012.53 1013.02 1013.44 1013.90 1014.33 1014.80 1015.29 1015.51 1016.01 1016.61 1017.12 1017.36 1017.50 1017.64 1017.60 1017.69 1017.43 1017.04 1017.32 1016.61 1013.56 1013.16 1012.77 1012.30 1012.45 1011.75 1010.90 1010.63 1010.65 1011.02 1011.60 1011.86 1011.90 1011.73 1011.61 1011.73 1011.84 1011.97 1011.84 1011.60 1011.07 1010.66 1009.97 1009.29
1010.06 1010.52 1011.22 1011.68 1012.20 1012.58 1013.00 1013.44 1014.11 1014.59 1014.96 1015.38 1015.95 1016.52 1017.09 1017.52 1018.13 1017.43 1017.24 1016.96 1016.84 1017.28 1016.82 1013.63 1012.53 1011.80 1012.12 1012.05 1011.57 1010.67 1010.33 1010.41 1010.86 1011.28 1011.66 1011.87 1011.56 1011.51 1011.67 1011.72 1011.85 1011.74 1011.09 1011.17 1011.01 1010.77 1009.90
1009.33 1009.63 1010.37 1010.96 1011.32 1011.81 1012.13 1012.50 1013.04 1013.77 1014.27 1014.77 1015.34 1015.89 1016.63 1016.84 1017.14 1017.22 1016.76 1016.85 1016.92 1017.23 1016.08 1012.71 1011.78 1011.11 1011.40 1011.79 1011.37 1010.66 1010.31 1010.31 1010.92 1011.23 1011.49 1011.21 1011.26 1011.25 1011.26 1011.01 1011.24 1011.05 1010.97 1011.21 1011.21 1011.15 1010.84
1008.91 1009.22 1009.50 1009.87 1010.48 1010.87 1011.50 1011.79 1012.15 1012.80 1013.47 1014.11 1014.73 1015.26 1016.31 1017.18 1017.13 1016.69 1016.61 1016.78 1017.13 1017.20 1014.81 1012.50 1011.48 1011.27 1011.56 1011.49 1011.13 1010.70 1010.44 1010.42 1010.96 1011.38 1011.67 1011.46 1011.32 1011.15 1010.69 1010.30 1010.37 1010.45 1010.67 1010.96 1011.26 1011.06 1010.30
1008.15 1008.45 1008.94 1009.14 1009.30 1009.98 1010.40 1011.08 1011.44 1011.92 1012.54 1013.39 1014.14 1014.81 1015.44 1016.01 1015.89 1015.98 1016.71 1017.46 1017.54 1015.83 1013.49 1012.47 1011.87 1011.74 1011.77 1011.59 1011.28 1010.98 1010.88 1010.90 1011.11 1011.59 1011.84 1011.64 1011.34 1010.94 1010.86 1010.90 1010.72 1010.84 1011.08 1011.01 1010.78 1010.88 1009.91
1007.45 1007.66 1008.01 1008.60 1008.84 1008.95 1009.32 1010.11 1010.62 1011.12 1011.77 1012.56 1013.43 1014.29 1014.43 1014.80 1015.60 1015.69 1017.18 1017.75 1015.55 1013.51 1012.44 1012.12 1011.91 1011.90 1012.00 1011.92 1011.89 1011.70 1011.63 1011.46 1011.41 1011.18 1011.46 1011.40 1011.32 1010.97 1010.89 1010.91 1011.07 1011.32 1011.42 1011.50 1010.74 1010.62 1010.07
1006.59 1006.66 1007.06 1007.48 1008.01 1008.42 1008.62 1009.17 1009.80 1010.26 1010.96 1011.94 1013.01 1013.94 1014.11 1014.59 1015.12 1015.59 1016.28 1015.28 1012.54 1012.17 1011.89 1012.01 1012.24 1012.10 1012.08 1012.26 1012.55 1012.42 1012.23 1011.96 1011.95 1011.60 1011.76 1011.66 1011.36 1011.09 1010.83 1010.80 1011.15 1011.53 1011.85 1011.90 1011.63 1011.58 1011.01
1005.53 1005.73 1005.94 1006.65 1007.13 1007.52 1007.92 1008.35 1008.84 1009.37 1010.01 1011.05 1012.10 1013.21 1013.36 1013.86 1014.61 1015.22 1014.66 1012.26 1012.08 1011.32 1011.33 1011.53 1011.61 1011.46 1011.68 1012.20 1012.73 1012.65 1012.21 1012.13 1012.30 1012.42 1012.26 1011.98 1011.86 1011.38 1011.22 1011.17 1011.25 1011.32 1011.70 1012.41 1012.82 1012.46 1011.36
1004.59 1004.84 1005.27 1005.49 1006.00 1006.71 1006.71 1007.49 1007.91 1008.57 1009.19 1009.78 1011.00 1012.23 1012.53 1013.21 1014.32 1014.93 1013.12 1012.29 1011.66 1011.36 1011.47 1011.78 1011.29 1010.93 1011.32 1011.70 1012.35 1012.52 1011.74 1012.02 1012.00 1012.53 1012.79 1012.89 1012.63 1012.51 1011.89 1011.79 1011.87 1012.12 1012.14 1012.50 1013.22 1013.40 1012.85
1003.33 1003.80 1004.35 1004.44 1004.84 1005.39 1005.87 1006.27 1007.10 1007.55 1008.56 1009.80 1010.61 1011.67 1012.27 1012.23 1014.09 1013.99 1013.14 1012.34 1012.02 1012.02 1012.01 1012.15 1012.12 1011.49 1011.13 1011.58 1012.22 1012.58 1011.86 1011.72 1011.99 1012.55 1012.84 1013.21 1013.24 1012.70 1012.34 1012.46 1012.35 1012.34 1012.59 1013.04 1013.36 1013.84 1013.86
1002.05 1002.51 1002.90 1003.44 1003.98 1004.32 1004.59 1005.20 1005.93 1006.93 1007.69 1009.08 1009.95 1011.48 1012.24 1012.18 1012.18 1012.74 1012.74 1012.57 1012.37 1012.43 1012.32 1012.44 1012.36 1012.18 1012.32 1012.64 1012.81 1012.51 1012.18 1012.13 1012.07 1012.50 1012.96 1013.22 1013.43 1013.20 1012.66 1013.13 1013.04 1012.65 1012.82 1013.49 1014.61 1015.06 1014.64
1000.63 1001.25 1001.48 1002.24 1002.72 1003.35 1004.02 1004.23 1004.89 1005.80 1006.51 1007.58 1009.06 1011.26 1012.29 1012.50 1011.41 1011.18 1011.93 1012.46 1012.49 1012.58 1012.66 1012.75 1012.58 1012.63 1013.15 1013.51 1013.26 1013.14 1013.29 1013.32 1012.78 1012.98 1013.14 1013.29 1013.54 1013.35 1013.11 1012.73 1013.13 1013.61 1013.24 1013.59 1014.49 1015.02 1014.15
999.15 999.60 1000.25 1000.88 1001.61 1002.28 1002.73 1003.46 1003.97 1004.65 1005.44 1006.39 1007.71 1008.86 1009.06 1011.56 1011.23 1010.87 1010.98 1011.43 1012.00 1012.23 1012.85 1013.26 1013.53 1013.16 1013.02 1013.96 1014.33 1014.48 1014.58 1014.84 1014.36 1014.09 1013.93 1014.14 1014.23 1014.06 1013.88 1013.23 1013.00 1012.79 1013.09 1013.40 1013.68 1013.40 1013.50
997.42 998.02 998.85 999.58 1000.45 1000.86 1001.42 1002.02 1002.85 1003.61 1004.57 1005.33 1006.41 1007.95 1008.99 1009.32 1010.03 1010.50 1010.59 1010.17 1010.64 1011.55 1012.39 1012.73 1012.94 1013.38 1013.75 1013.73 1013.82 1014.70 1015.18 1015.38 1015.21 1015.15 1015.02 1015.01 1014.94 1014.55 1014.14 1013.56 1012.64 1012.58 1012.83 1012.67 1012.68 1012.04 1011.85
995.76 996.67 997.57 998.25 999.21 999.56 1000.33 1001.06 1001.97 1002.55 1003.34 1003.79 1005.64 1006.37 1006.55 1008.33 1009.18 1009.78 1008.88 1009.00 1009.72 1011.08 1012.02 1012.11 1012.69 1013.70 1014.12 1014.12 1014.61 1015.04 1015.22 1015.57 1015.53 1015.47 1015.27 1015.64 1015.48 1015.05 1014.12 1013.77 1013.06 1011.83 1010.99 1011.09 1011.28 1010.92 1011.08
994.36 995.27 996.15 996.87 997.66 998.31 999.15 999.77 1000.74 1001.39 1001.50 1002.64 1004.10 1005.09 1006.70 1006.88 1008.15 1008.09 1008.55 1009.25 1009.70 1010.43 1011.40 1012.39 1012.87 1013.44 1014.28 1014.31 1014.84 1015.23 1015.43 1015.47 1015.35 1015.44 1015.22 1015.19 1015.17 1015.10 1014.40 1014.46 1012.79 1010.61 1010.82 1010.79 1011.14 1010.69 1010.55
993.07 993.69 994.73 995.37 996.05 997.18 997.68 998.58 999.51 999.97 1000.63 1001.29 1002.53 1003.56 1004.87 1006.32 1007.31 1008.37 1008.82 1009.26 1010.37 1010.95 1011.96 1012.62 1013.05 1013.19 1013.80 1014.59 1015.21 1015.31 1015.16 1015.21 1014.28 1014.20 1014.33 1014.63 1015.09 1015.25 1014.31 1013.86 1011.73 1010.98 1010.80 1011.14 1011.22 1011.09 1011.62
991.40 992.05 992.79 993.46 994.43 995.75 996.37 997.26 998.16 998.73 999.79 1000.65 1001.83 1002.35 1003.78 1005.21 1006.52 1007.30 1008.44 1008.96 1010.22 1010.99 1012.02 1012.65 1013.17 1013.20 1013.83 1014.34 1014.74 1014.61 1014.47 1014.00 1014.01 1013.60 1014.23 1014.54 1014.91 1015.31 1014.59 1013.84 1012.05 1010.83 1011.41 1011.65 1011.93 1011.40 1011.71
989.45 990.02 990.91 991.77 992.85 994.45 995.07 995.86 996.89 997.52 999.07 1000.27 1001.69 1002.13 1003.29 1005.41 1006.58 1006.82 1007.56 1008.34 1009.71 1010.53 1011.45 1012.64 1012.81 1013.39 1013.58 1013.81 1014.42 1014.36 1014.50 1013.89 1013.64 1013.67 1014.11 1014.66 1014.78 1014.39 1014.10 1013.65 1011.98 1011.51 1011.49 1011.68 1011.71 1011.68 1011.67
986.17 986.81 988.27 989.75 991.46 992.92 993.67 994.52 995.73 996.41 997.98 999.15 1001.81 1002.02 1002.21 1005.47 1007.19 1007.18 1007.49 1008.07 1009.23 1009.95 1010.72 1012.25 1012.82 1013.46 1013.96 1013.78 1014.25 1014.55 1014.56 1014.26 1014.05 1013.82 1013.70 1013.64 1013.83 1014.02 1014.11 1013.52 1012.39 1011.88 1011.72 1011.86 1011.62 1011.40 1011.39
979.21 981.58 984.98 987.62 989.85 991.03 992.51 993.58 994.94 996.17 997.50 998.67 1001.57 1002.19 1002.45 1005.08 1007.52 1007.68 1008.09 1008.06 1008.42 1009.32 1010.57 1011.64 1011.93 1012.48 1012.82 1013.32 1014.35 1014.82 1014.99 1014.83 1014.43 1014.01 1013.77 1013.86 1013.33 1013.67 1013.93 1012.39 1011.91 1011.92 1011.94 1011.62 1011.47 1011.15 1011.18
Thickness
5672 5673 5672 5671 5670 5671 5670 5671 5670 5669 5667 5666 5664 5662 5660 5659 5662 5662 5663 5666 5671 5676 5680 5683 5687 5691 5698 5695 5707 5728 5728 5732 5732 5733 5725 5719 5713 5709 5703 5705 5710 5706 5710 5714 5719 5715 5713
5670 5669 5670 5667 5667 5667 5666 5665 5666 5665 5664 5662 5661 5657 5657 5656 5657 5659 5660 5663 5668 5675 5679 5680 5684 5686 5688 5687 5723 5726 5724 5728 5727 5727 5722 5720 5711 5711 5704 5701 5701 5706 5708 5712 5715 5718 5713
5667 5667 5666 5665 5663 5662 5663 5662 5661 5661 5661 5659 5657 5655 5653 5653 5654 5656 5658 5662 5667 5673 5676 5679 5683 5683 5684 5699 5718 5720 5722 5721 5723 5720 5717 5719 5716 5710 5706 5700 5703 5703 5702 5710 5712 5711 5710
5663 5663 5661 5660 5661 5660 5658 5659 5657 5657 5657 5655 5653 5651 5650 5648 5651 5652 5655 5660 5668 5671 5675 5678 5679 5679 5685 5708 5712 5714 5719 5718 5719 5719 5714 5716 5713 5707 5702 5700 5695 5691 5690 5692 5709 5708 5706
5659 5657 5658 5656 5655 5655 5654 5654 5655 5654 5651 5650 5650 5648 5647 5644 5646 5648 5651 5659 5668 5668 5670 5672 5674 5676 5684 5705 5702 5707 5709 5706 5710 5711 5710 5711 5706 5695 5692 5683 5680 5678 5683 5680 5695 5703 5700
5654 5654 5654 5652 5652 5652 5651 5650 5651 5650 5647 5645 5645 5643 5642 5641 5642 5644 5646 5657 5665 5664 5664 5664 5670 5671 5689 5688 5695 5698 5702 5700 5697 5695 5697 5696 5688 5681 5674 5675 5669 5675 5673 5675 5679 5693 5694
5650 5650 5650 5649 5648 5646 5646 5646 5647 5647 5644 5642 5639 5639 5636 5635 5638 5638 5641 5648 5650 5654 5659 5658 5667 5675 5680 5684 5690 5692 5695 5693 5691 5683 5674 5677 5676 5674 5677 5672 5671 5668 5665 5668 5680 5686 5676
5645 5646 5644 5644 5643 5643 5641 5642 5642 5642 5641 5639 5634 5633 5632 5631 5632 5632 5631 5629 5632 5634 5647 5659 5662 5665 5673 5675 5671 5685 5690 5680 5679 5671 5666 5664 5663 5671 5668 5665 5661 5660 5657 5664 5670 5676 5672
5639 5640 5639 5639 5638 5638 5638 5638 5638 5636 5636 5634 5629 5626 5626 5624 5625 5627 5623 5623 5627 5627 5630 5657 5659 5661 5668 5668 5668 5675 5683 5679 5671 5661 5659 5657 5663 5663 5659 5655 5649 5649 5648 5651 5656 5662 5667
5632 5634 5633 5633 5634 5634 5634 5634 5632 5632 5631 5629 5625 5622 5619 5616 5614 5622 5621 5621 5622 5619 5612 5649 5660 5665 5663 5663 5663 5678 5681 5677 5667 5660 5655 5652 5658 5654 5650 5647 5643 5635 5649 5646 5642 5639 5642
5624 5627 5627 5626 5627 5628 5630 5631 5630 5627 5626 5624 5620 5619 5615 5612 5614 5617 5618 5616 5616 5612 5593 5653 5655 5668 5663 5657 5660 5666 5674 5670 5655 5654 5655 5655 5651 5649 5645 5646 5641 5640 5641 5635 5631 5626 5619
5611 5616 5620 5621 5621 5624 5623 5626 5626 5625 5622 5619 5614 5613 5607 5604 5604 5611 5610 5610 5607 5593 5590 5632 5649 5649 5647 5650 5654 5659 5660 5662 5653 5644 5639 5643 5645 5645 5647 5648 5643 5642 5635 5626 5615 5617 5615
5601 5606 5609 5612 5617 5618 5621 5619 5621 5621 5618 5613 5609 5606 5605 5601 5607 5606 5603 5596 5584 5581 5617 5626 5634 5636 5635 5636 5640 5643 5643 5641 5638 5629 5624 5629 5630 5633 5631 5625 5627 5621 5614 5606 5609 5601 5610
5591 5597 5602 5602 5607 5612 5615 5614 5615 5616 5614 5609 5604 5600 5602 5601 5598 5600 5589 5582 5584 5602 5618 5624 5626 5626 5622 5625 5625 5625 5623 5626 5624 5629 5619 5617 5613 5621 5622 5617 5610 5602 5602 5592 5588 5593 5603
5580 5591 5594 5597 5598 5601 5607 5609 5609 5612 5610 5604 5597 5591 5593 5597 5593 5592 5585 5581 5608 5607 5615 5614 5614 5610 5611 5612 5609 5608 5609 5610 5609 5616 5613 5600 5601 5608 5609 5608 5603 5592 5584 5586 5575 5569 5573
5572 5580 5587 5588 5592 5594 5598 5602 5604 5607 5607 5600 5594 5585 5589 5591 5585 5581 5587 5607 5603 5614 5610 5610 5608 5614 5604 5604 5598 5595 5599 5599 5595 5597 5597 5594 5590 5595 5595 5596 5590 5586 5583 5565 5555 5548 5553
5563 5569 5575 5582 5586 5587 5594 5595 5599 5601 5602 5600 5588 5582 5583 5582 5573 5566 5584 5595 5601 5600 5600 5596 5606 5611 5608 5596 5592 5588 5597 5592 5592 5586 5583 5578 5577 5576 5580 5575 5569 5567 5563 5556 5546 5538 5536
5554 5559 5563 5574 5579 5582 5586 5592 5592 5595 5593 5585 5577 5579 5569 5573 5557 5556 5573 5582 5584 5581 5582 5584 5586 5597 5600 5592 5583 5582 5586 5586 5585 5577 5570 5565 5556 5559 5563 5560 5556 5554 5548 5542 5528 5527 5517
5542 5549 5557 5562 5567 5574 5579 5584 5587 5586 5585 5576 5571 5558 5552 5556 5560 5556 5564 5566 5570 5572 5573 5571 5571 5578 5578 5574 5567 5574 5574 5572 5570 5565 5554 5553 5545 5548 5550 5540 5538 5539 5534 5524 5510 5500 5498
5529 5537 5547 5552 5559 5562 5565 5574 5578 5579 5581 5573 5557 5536 5532 5535 5551 5570 5565 5554 5556 5554 5560 5561 5563 5564 5558 5554 5555 5554 5553 5551 5553 5550 5545 5543 5536 5535 5534 5536 5528 5517 5522 5514 5497 5474 5493
5518 5528 5535 5542 5546 5552 5559 5561 5567 5569 5572 5564 5549 5536 5548 5529 5539 5549 5559 5552 5547 5550 5543 5541 5530 5546 5546 5526 5523 5516 5518 5513 5525 5527 5524 5521 5508 5516 5516 5518 5519 5518 5511 5503 5498 5503 5485
5508 5517 5523 5530 5535 5543 5549 5555 5554 5559 5556 5553 5535 5532 5532 5538 5546 5537 5537 5549 5552 5545 5531 5528 5527 5524 5520 5518 5519 5507 5498 5491 5495 5501 5498 5497 5482 5495 5493 5501 5507 5505 5499 5500 5497 5502 5496
5496 5503 5510 5518 5524 5535 5539 5545 5544 5545 5544 5537 5526 5530 5544 5528 5530 5526 5543 5551 5545 5532 5517 5522 5515 5503 5497 5500 5496 5488 5487 5482 5481 5478 5476 5467 5463 5467 5475 5491 5487 5489 5505 5501 5501 5505 5496
5477 5487 5497 5507 5515 5523 5528 5534 5533 5534 5540 5531 5526 5530 5525 5526 5521 5529 5535 5531 5530 5525 5514 5496 5497 5492 5484 5486 5478 5472 5468 5467 5468 5468 5471 5460 5461 5458 5463 5465 5464 5512 5499 5495 5484 5497 5490
5454 5470 5480 5495 5507 5510 5518 5522 5524 5529 5531 5523 5523 5525 5526 5507 5512 5506 5513 5510 5503 5495 5483 5477 5472 5478 5471 5461 5457 5457 5457 5456 5468 5468 5463 5460 5453 5445 5446 5453 5486 5495 5487 5477 5469 5482 5451
5428 5446 5466 5483 5493 5497 5506 5512 5516 5523 5521 5509 5513 5525 5518 5507 5499 5505 5498 5496 5485 5480 5469 5463 5461 5460 5454 5449 5446 5450 5457 5469 5465 5465 5452 5444 5440 5434 5436 5435 5450 5481 5456 5449 5438 5448 5434
5412 5426 5443 5463 5477 5479 5493 5504 5509 5515 5506 5497 5500 5511 5507 5489 5485 5495 5492 5487 5474 5469 5462 5450 5450 5442 5442 5438 5441 5445 5448 5451 5454 5452 5444 5427 5421 5430 5431 5425 5448 5448 5444 5434 5425 5431 5421
5410 5419 5432 5444 5454 5467 5483 5494 5497 5504 5500 5503 5483 5495 5504 5475 5464 5475 5478 5470 5459 5457 5455 5437 5435 5427 5423 5430 5430 5429 5431 5435 5428 5436 5440 5439 5428 5420 5420 5414 5419 5426 5425 5417 5415 5413 5409
5456 5442 5431 5433 5444 5460 5470 5482 5484 5491 5491 5491 5475 5480 5489 5473 5454 5455 5451 5454 5451 5446 5435 5424 5434 5427 5424 5417 5412 5405 5408 5400 5405 5419 5419 5414 5424 5415 5403 5429 5408 5403 5402 5399 5398 5400 5396